Regional Weather Roundup
Issued by NWS Cleveland, OH

Home | Current Version | Previous Version | Graphics & Text | Print | Product List | Glossary On
Versions: 1 2 3 4 5 6 7 8 9 10 11 12 13 14 15 16 17 18 19 20 21 22 23 24 25 26 27 28 29 30 31 32 33 34 35 36 37 38 39 40 41 42 43 44 45 46 47 48 49 50
000
ASUS41 KCLE 220602
RWRCLE
OHIO REGIONAL WEATHER ROUNDUP
NATIONAL WEATHER SERVICE CLEVELAND, OH
200 AM EDT TUE AUG 22 2017

NOTE: "FAIR" INDICATES FEW OR NO CLOUDS BELOW 12,000 FEET WITH NO
SIGNIFICANT WEATHER AND/OR OBSTRUCTIONS TO VISIBILITY.

OHZ001>008-015>018-024>027-034-035-043-044-220700-
   NORTHWEST OHIO

CITY           SKY/WX    TMP DP  RH WIND       PRES   REMARKS
DEFIANCE       PTCLDY    73  68  84 S8        29.96F
FINDLAY        CLEAR     73  68  84 S8        29.97F
TOLEDO EXPRESS PTCLDY    74  70  87 SW6       29.96F
TOLEDO EXEC    PTCLDY    74  70  87 SW7       29.97F
LIMA           CLEAR     74  70  87 S9        30.00F
$$

OHZ009>014-019>023-028>033-038-089-220700-
   NORTHEAST OHIO

CITY           SKY/WX    TMP DP  RH WIND       PRES   REMARKS
CLE-HOPKINS    PTCLDY    79  69  71 S9        30.01F
CLE-LAKEFRONT  PTCLDY    79  67  66 S10       29.98F
CUY CO. ARPT   NOT AVBL
LORAIN-ELYRIA  CLEAR     73  64  73 S7        30.00F
ASHTABULA      PTCLDY    75  72  90 S8        30.03F
AKRON-CANTON   MOCLDY    76  68  76 S9        30.05F
WOOSTER        PTCLDY    72  69  90 S5        30.04F
MANSFIELD      CLEAR     73  68  84 S9        30.03F
YOUNGSTOWN     MOCLDY    74  69  85 S6        30.05F
$$

OHZ042-051>053-060>062-070>072-077>081-220700-
  SOUTHWEST OHIO

CITY           SKY/WX    TMP DP  RH WIND       PRES   REMARKS
CINC-COVINGTON CLOUDY    76  71  85 S8        30.04F
CINC-LUNKEN    PTCLDY    73  71  93 S7        30.04F
HAMILTON       PTCLDY    74  71  91 CALM      30.04F
DAYTON         CLOUDY    77  67  71 SW9       30.04F
WRIGHT-PAT AFB CLOUDY    76  71  84 SE5       30.03F
DAYTON GENERAL CLOUDY    75  68  78 S5        30.03F
WILMINGTON     PTCLDY    74  71  91 S9        30.05F
$$

OHZ036-037-039>041-045>050-054>059-063>069-073>076-082>088-220700-
  CENTRAL AND SOUTHEAST OHIO

CITY           SKY/WX    TMP DP  RH WIND       PRES   REMARKS
COLUMBUS       MOCLDY    76  70  82 S7        30.04F
OSU AIRPORT    PTCLDY    77  71  82 S8        30.03F
BOLTON FIELD   MOCLDY    73  70  89 S7        30.04F
RICKENBACK AFB MOCLDY    73  69  88 S5        30.04F
NEWARK         MOCLDY    71  69  93 CALM      30.04F
MARION         PTCLDY    72  68  87 S8        30.02F
LANCASTER      MOCLDY    76  69  79 S3        30.06F
ZANESVILLE     MOCLDY    75  68  78 S5        30.06F
NEW PHILLY     NOT AVBL
$$




USA.gov is the U.S. government's official web portal to all federal, state and local government web resources and services.